DW1087 Weather Reports


Display with metric or nautical units.
time (UTC)temp
F
wind
direction
speed
MPH
gust
MPH
rain 1hr
in
rain 24hr
in
rain mn
in
humidity
%
barometer
mb
20181015093019 22 219 15.0 18.0 0.00 0.00 0.00 82 1019.0
20181015092449 22 219 15.0 17.0 0.00 0.00 0.00 83 1019.1
20181015091923 22 221 14.0 17.0 0.00 0.00 0.00 83 1019.2
20181015091455 22 220 15.0 19.0 0.00 0.00 0.00 83 1019.2
20181015090931 22 220 15.0 19.0 0.00 0.00 0.00 83 1019.4
20181015090423 22 221 15.0 18.0 0.00 0.00 0.00 83 1019.3
20181015085936 22 216 15.0 18.0 0.00 0.00 0.00 83 1019.3
20181015085429 22 217 15.0 18.0 0.00 0.00 0.00 83 1019.5
20181015084942 22 219 14.0 18.0 0.00 0.00 0.00 83 1019.4
20181015084437 22 223 15.0 18.0 0.00 0.00 0.00 83 1019.6
20181015083926 22 221 14.0 18.0 0.00 0.00 0.00 83 1019.7
20181015083459 22 221 14.0 18.0 0.00 0.00 0.00 83 1019.6
20181015082930 22 223 15.0 18.0 0.00 0.00 0.00 83 1019.7
20181015082447 22 228 14.0 19.0 0.00 0.00 0.00 83 1019.5
20181015081939 22 227 16.0 19.0 0.00 0.00 0.00 84 1019.8
20181015081452 21 213 15.0 18.0 0.00 0.00 0.00 84 1019.7
20181015080923 22 232 14.0 17.0 0.00 0.00 0.00 84 1019.8
20181015080439 21 223 14.0 18.0 0.00 0.00 0.00 84 1019.7
20181015075930 21 220 15.0 18.0 0.00 0.00 0.00 85 1019.6
20181015075424 21 223 14.0 17.0 0.00 0.00 0.00 85 1019.7
20181015074918 21 223 15.0 17.0 0.00 0.00 0.00 85 1019.6
20181015074453 21 215 15.0 18.0 0.00 0.00 0.00 85 1019.8
20181015073948 21 214 15.0 18.0 0.00 0.00 0.00 85 1019.6
20181015073423 21 215 14.0 18.0 0.00 0.00 0.00 85 1019.6
20181015072958 21 232 14.0 19.0 0.00 0.00 0.00 85 1019.5
20181015072432 21 217 16.0 19.0 0.00 0.00 0.00 86 1019.5
20181015071925 21 220 16.0 19.0 0.00 0.00 0.00 86 1019.4
20181015071439 21 221 15.0 18.0 0.00 0.00 0.00 86 1019.3
20181015070931 21 219 15.0 18.0 0.00 0.00 0.00 86 1019.5
20181015070503 21 226 16.0 18.0 0.00 0.00 0.00 86 1019.4
20181015065932 21 213 15.0 18.0 0.00 0.00 0.00 87 1019.4
20181015065424 20 230 14.0 19.0 0.00 0.00 0.00 87 1019.4
20181015064924 20 215 16.0 19.0 0.00 0.00 0.00 87 1019.4
20181015064437 21 206 16.0 20.0 0.00 0.00 0.00 87 1019.4
20181015064010 21 217 17.0 20.0 0.00 0.00 0.00 87 1019.5
20181015063440 21 212 16.0 20.0 0.00 0.00 0.00 87 1019.5
20181015062933 20 222 16.0 20.0 0.00 0.00 0.00 87 1019.6
20181015062445 21 209 16.0 20.0 0.00 0.00 0.00 87 1019.7
20181015061937 21 217 17.0 20.0 0.00 0.00 0.00 87 1019.7
20181015061513 21 225 17.0 20.0 0.00 0.00 0.00 88 1019.8
20181015061002 20 216 16.0 20.0 0.00 0.00 0.00 88 1019.8
20181015060435 21 219 18.0 20.0 0.00 0.00 0.00 88 1019.8
20181015055926 21 219 16.0 20.0 0.00 0.00 0.00 88 1019.8
20181015055438 21 225 17.0 20.0 0.00 0.00 0.00 88 1020.0
20181015054931 21 221 16.0 20.0 0.00 0.00 0.00 87 1019.8
20181015054430 21 210 15.0 19.0 0.00 0.00 0.00 87 1019.7
20181015054022 21 221 15.0 19.0 0.00 0.00 0.00 87 1019.7
20181015053432 21 227 14.0 19.0 0.00 0.00 0.00 87 1019.6
20181015052945 21 226 15.0 19.0 0.00 0.00 0.00 86 1019.8
20181015052437 21 215 14.0 18.0 0.00 0.00 0.00 86 1019.7
20181015051930 21 213 14.0 17.0 0.00 0.00 0.00 86 1019.7
20181015051422 21 218 13.0 16.0 0.00 0.00 0.00 86 1019.8
20181015050935 22 215 14.0 16.0 0.00 0.00 0.00 86 1019.9
20181015050427 22 217 12.0 15.0 0.00 0.00 0.00 86 1020.0
20181015045922 22 225 12.0 15.0 0.00 0.00 0.00 85 1020.0
20181015045454 22 224 11.0 14.0 0.00 0.00 0.00 85 1020.0
20181015044926 22 225 12.0 15.0 0.00 0.00 0.00 85 1020.1
20181015044437 22 230 12.0 15.0 0.00 0.00 0.00 85 1020.1
20181015043949 22 223 12.0 14.0 0.00 0.00 0.00 84 1020.2
20181015043421 22 224 12.0 14.0 0.00 0.00 0.00 84 1020.1
20181015042937 22 225 12.0 15.0 0.00 0.00 0.00 84 1020.1
20181015042509 22 219 12.0 16.0 0.00 0.00 0.00 84 1020.1
20181015041940 22 221 13.0 18.0 0.00 0.00 0.00 84 1020.1
20181015041432 22 227 13.0 18.0 0.00 0.00 0.00 83 1020.1
20181015040927 22 227 13.0 17.0 0.00 0.00 0.00 82 1020.1
20181015040423 23 225 14.0 17.0 0.00 0.00 0.00 81 1020.2
20181015035935 23 227 14.0 16.0 0.00 0.00 0.00 80 1020.1
20181015035427 23 221 13.0 16.0 0.00 0.00 0.00 80 1020.2
20181015034940 23 222 13.0 16.0 0.00 0.00 0.00 79 1020.1
20181015034432 23 225 13.0 15.0 0.00 0.00 0.00 78 1020.1
20181015033926 24 229 12.0 13.0 0.00 0.00 0.00 78 1020.1
20181015033437 24 225 10.0 13.0 0.00 0.00 0.00 78 1020.2
20181015032930 24 227 10.0 14.0 0.00 0.00 0.00 78 1020.2
20181015032426 24 231 11.0 14.0 0.00 0.00 0.00 78 1020.1
20181015031939 24 230 12.0 14.0 0.00 0.00 0.00 77 1020.1
20181015031452 24 225 11.0 12.0 0.00 0.00 0.00 76 1020.0
20181015030923 25 227 10.0 12.0 0.00 0.00 0.00 75 1020.0
20181015030435 25 232 9.0 10.0 0.00 0.00 0.00 76 1020.0
20181015025946 24 235 8.0 10.0 0.00 0.00 0.00 76 1020.0
20181015025421 24 229 8.0 11.0 0.00 0.00 0.00 75 1020.0
20181015024934 25 234 8.0 11.0 0.00 0.00 0.00 75 1020.0
20181015024426 25 239 9.0 12.0 0.00 0.00 0.00 75 1020.0
20181015024019 25 243 9.0 12.0 0.00 0.00 0.00 74 1020.0
20181015023449 25 234 9.0 11.0 0.00 0.00 0.00 74 1020.0
20181015022924 25 238 7.0 11.0 0.00 0.00 0.00 74 1020.0
20181015022457 25 249 9.0 13.0 0.00 0.00 0.00 75 1020.0
20181015021929 25 234 9.0 13.0 0.00 0.00 0.00 74 1019.9
20181015021422 25 231 8.0 11.0 0.00 0.00 0.00 74 1019.9
20181015020935 25 221 7.0 10.0 0.00 0.00 0.00 73 1020.0
20181015020427 25 234 6.0 8.0 0.00 0.00 0.00 73 1019.9
20181015020018 25 233 6.0 8.0 0.00 0.00 0.00 72 1019.9
20181015015431 25 233 6.0 8.0 0.00 0.00 0.00 72 1019.9
20181015015004 25 233 6.0 7.0 0.00 0.00 0.00 72 1020.0
20181015014454 25 233 5.0 8.0 0.00 0.00 0.00 72 1020.0
20181015014010 25 233 5.0 8.0 0.00 0.00 0.00 72 1020.1
20181015013439 25 233 6.0 8.0 0.00 0.00 0.00 71 1020.1
20181015012931 25 229 6.0 9.0 0.00 0.00 0.00 72 1020.0
20181015012445 25 236 6.0 8.0 0.00 0.00 0.00 72 1019.8
20181015011939 25 236 6.0 8.0 0.00 0.00 0.00 72 1019.8
20181015011511 25 236 6.0 10.0 0.00 0.00 0.00 73 1019.9
20181015011001 25 236 7.0 11.0 0.00 0.00 0.00 73 1019.9
20181015010512 25 230 9.0 11.0 0.00 0.00 0.00 72 1019.8
20181015005942 25 321 8.0 10.0 0.00 0.00 0.00 70 1019.8
20181015005433 26 344 6.0 7.0 0.00 0.00 0.00 69 1019.7
20181015004925 26 344 5.0 7.0 0.00 0.00 0.00 70 1019.8
20181015004438 26 345 6.0 7.0 0.00 0.00 0.00 70 1019.8
20181015004010 26 346 5.0 6.0 0.00 0.00 0.00 69 1019.8
20181015003440 26 346 5.0 6.0 0.00 0.00 0.00 69 1019.8
20181015002953 26 346 4.0 6.0 0.00 0.00 0.00 69 1019.8
20181015002424 26 347 4.0 6.0 0.00 0.00 0.00 69 1019.8
20181015001939 26 347 4.0 5.0 0.00 0.00 0.00 69 1019.8
20181015001431 26 347 4.0 5.0 0.00 0.00 0.00 69 1019.8
20181015000931 27 347 4.0 5.0 0.00 0.00 0.00 68 1019.7
20181015000424 27 347 4.0 4.0 0.00 0.00 0.00 67 1019.7
20181014235935 27 347 3.0 5.0 0.00 0.00 0.00 68 1019.7
20181014235427 28 347 4.0 5.0 0.00 0.00 0.00 67 1019.7
20181014234959 28 349 4.0 5.0 0.00 0.00 0.00 66 1019.7
20181014234430 28 350 3.0 5.0 0.00 0.00 0.00 65 1019.7
20181014233943 28 350 2.0 6.0 0.00 0.00 0.00 65 1019.7
20181014233434 28 350 3.0 9.0 0.00 0.00 0.00 65 1019.7
20181014233010 28 350 6.0 9.0 0.00 0.00 0.00 65 1019.7
20181014232500 27 347 5.0 7.0 0.00 0.00 0.00 65 1019.7
20181014231932 27 346 6.0 9.0 0.00 0.00 0.00 64 1019.6
20181014231428 27 348 7.0 11.0 0.00 0.00 0.00 65 1019.7
20181014230921 27 351 7.0 12.0 0.00 0.00 0.00 65 1019.7
20181014230453 27 355 8.0 13.0 0.00 0.00 0.00 65 1019.6
20181014225942 28 342 7.0 13.0 0.00 0.00 0.00 63 1019.7
20181014225517 28 350 7.0 10.0 0.00 0.00 0.00 64 1019.8
20181014225009 28 344 7.0 12.0 0.00 0.00 0.00 65 1019.8
20181014224418 28 355 6.0 13.0 0.00 0.00 0.00 65 1019.8
20181014223933 28 355 10.0 14.0 0.00 0.00 0.00 66 1019.8
20181014223426 28 340 9.0 14.0 0.00 0.00 0.00 65 1019.7
20181014222938 27 355 7.0 12.0 0.00 0.00 0.00 68 1019.8
20181014222430 26 336 8.0 13.0 0.00 0.00 0.00 68 1019.7
20181014221942 26 350 8.0 14.0 0.00 0.00 0.00 68 1019.8
20181014221437 26 348 8.0 16.0 0.00 0.00 0.00 68 1019.9
20181014221010 26 306 13.0 16.0 0.00 0.00 0.00 67 1019.8
20181014220440 26 318 13.0 16.0 0.00 0.00 0.00 68 1019.9
20181014220011 26 325 10.0 16.0 0.00 0.00 0.00 68 1020.0
20181014215420 26 311 11.0 16.0 0.00 0.00 0.00 67 1019.9
20181014214936 26 323 12.0 15.0 0.00 0.00 0.00 67 1020.1
20181014214509 26 318 10.0 14.0 0.00 0.00 0.00 69 1020.1
20181014214002 26 325 10.0 14.0 0.00 0.00 0.00 68 1020.0
20181014213435 26 327 8.0 15.0 0.00 0.00 0.00 71 1020.0
20181014212928 26 315 7.0 15.0 0.00 0.00 0.00 70 1020.0
20181014212440 25 311 11.0 15.0 0.00 0.00 0.00 68 1020.0
20181014211933 26 306 11.0 15.0 0.00 0.00 0.00 69 1019.9
20181014211445 25 306 11.0 16.0 0.00 0.00 0.00 70 1019.9
20181014210924 25 333 13.0 16.0 0.00 0.00 0.00 69 1019.9
20181014210456 25 325 8.0 15.0 0.00 0.00 0.00 69 1020.1
20181014205946 25 303 13.0 15.0 0.00 0.00 0.00 68 1020.0
20181014205437 25 316 10.0 17.0 0.00 0.00 0.00 69 1020.1
20181014204932 25 302 14.0 21.0 0.00 0.00 0.00 68 1020.1
20181014204444 25 304 15.0 21.0 0.00 0.00 0.00 69 1020.1
20181014203959 25 302 15.0 23.0 0.00 0.00 0.00 68 1020.1
20181014203450 24 299 18.0 23.0 0.00 0.00 0.00 71 1020.1
20181014202922 25 303 12.0 17.0 0.00 0.00 0.00 71 1020.3
20181014202437 25 325 14.0 20.0 0.00 0.00 0.00 71 1020.4
20181014201950 25 294 18.0 20.0 0.00 0.00 0.00 70 1020.2
20181014201421 25 327 10.0 18.0 0.00 0.00 0.00 68 1020.3
20181014200953 25 329 9.0 13.0 0.00 0.00 0.00 69 1020.3
20181014200428 24 295 10.0 17.0 0.00 0.00 0.00 70 1020.3
20181014195939 24 300 15.0 17.0 0.00 0.00 0.00 69 1020.3
20181014195452 24 293 11.0 18.0 0.00 0.00 0.00 70 1020.4
20181014194923 24 325 10.0 18.0 0.00 0.00 0.00 69 1021.3
20181014194458 24 323 12.0 18.0 0.00 0.00 0.00 70 1021.2
20181014193930 24 325 11.0 18.0 0.00 0.00 0.00 70 1021.3
20181014193426 24 304 15.0 18.0 0.00 0.00 0.00 70 1021.2
20181014192938 24 301 12.0 17.0 0.00 0.00 0.00 70 1021.4
20181014192511 24 298 13.0 17.0 0.00 0.00 0.00 70 1021.4
20181014192021 24 311 13.0 17.0 0.00 0.00 0.00 71 1021.3
20181014191431 24 309 11.0 17.0 0.00 0.00 0.00 71 1021.5
20181014191007 24 320 13.0 19.0 0.00 0.00 0.00 72 1021.6
20181014190517 23 330 15.0 19.0 0.00 0.00 0.00 72 1021.6
20181014185945 23 325 10.0 17.0 0.00 0.00 0.00 71 1021.7
20181014185436 24 327 14.0 17.0 0.00 0.00 0.00 71 1021.7
20181014184933 24 344 7.0 14.0 0.00 0.00 0.00 73 1021.7
20181014184425 23 325 9.0 14.0 0.00 0.00 0.00 72 1021.8
20181014183938 23 325 10.0 15.0 0.00 0.00 0.00 73 1021.9
20181014183511 23 351 8.0 17.0 0.00 0.00 0.00 73 1022.0
20181014183001 23 348 12.0 17.0 0.00 0.00 0.00 72 1022.1
20181014182432 23 345 10.0 16.0 0.00 0.00 0.00 73 1022.0
20181014181925 23 5 9.0 14.0 0.00 0.00 0.00 74 1021.9
20181014181457 23 351 10.0 15.0 0.00 0.00 0.00 74 1021.8
20181014180948 23 349 9.0 15.0 0.00 0.00 0.00 73 1021.8
20181014180439 23 360 12.0 15.0 0.00 0.00 0.00 73 1021.8
20181014175929 23 351 9.0 16.0 0.00 0.00 0.00 74 1021.9
20181014175428 22 355 13.0 19.0 0.00 0.00 0.00 73 1021.9
20181014174940 23 347 13.0 19.0 0.00 0.00 0.00 72 1021.9
20181014174453 23 343 11.0 16.0 0.00 0.00 0.00 73 1021.9
20181014173925 23 341 11.0 17.0 0.00 0.00 0.00 74 1021.8
20181014173437 22 348 15.0 17.0 0.00 0.00 0.00 73 1021.8
20181014172929 23 351 12.0 17.0 0.00 0.00 0.00 75 1021.8
20181014172421 22 337 10.0 18.0 0.00 0.00 0.00 76 1021.7
20181014171937 22 338 11.0 18.0 0.00 0.00 0.00 76 1021.8
20181014171433 22 322 11.0 17.0 0.00 0.00 0.00 78 1021.8
20181014171006 22 329 12.0 19.0 0.00 0.00 0.00 78 1021.9
20181014170436 22 319 14.0 19.0 0.00 0.00 0.00 79 1022.1
20181014165947 22 333 14.0 18.0 0.00 0.00 0.00 77 1022.1
20181014165438 22 331 10.0 14.0 0.00 0.00 0.00 79 1022.2
20181014164950 22 332 9.0 16.0 0.00 0.00 0.00 78 1022.2
20181014164422 22 346 12.0 18.0 0.00 0.00 0.00 77 1022.2
20181014163935 22 355 13.0 18.0 0.00 0.00 0.00 76 1022.1
20181014163448 21 327 13.0 17.0 0.00 0.00 0.00 76 1022.3
20181014162939 21 344 13.0 21.0 0.00 0.00 0.00 77 1022.3
20181014162432 21 342 15.0 21.0 0.00 0.00 0.00 76 1022.3
20181014161928 21 339 13.0 19.0 0.00 0.00 0.00 76 1022.3
20181014161423 21 5 12.0 20.0 0.00 0.00 0.00 75 1022.2
20181014160936 21 341 15.0 20.0 0.00 0.00 0.00 75 1022.1
20181014160428 21 343 15.0 22.0 0.00 0.00 0.00 76 1022.1
20181014155940 21 342 16.0 24.0 0.00 0.00 0.00 76 1022.0
20181014155432 21 355 15.0 24.0 0.00 0.00 0.00 78 1022.1
20181014154924 21 355 13.0 19.0 0.00 0.00 0.00 79 1021.9
20181014154436 21 355 14.0 21.0 0.00 0.00 0.00 78 1021.9
20181014154011 21 355 13.0 21.0 0.00 0.00 0.00 80 1021.8
20181014153428 21 350 11.0 19.0 0.00 0.00 0.00 80 1021.8
20181014152920 21 10 12.0 22.0 0.00 0.00 0.00 79 1021.8
20181014152436 21 355 13.0 23.0 0.00 0.00 0.00 79 1021.7
20181014152008 21 360 14.0 23.0 0.00 0.00 0.00 78 1021.6
20181014151439 21 355 14.0 21.0 0.00 0.00 0.00 79 1021.6
20181014151011 21 339 15.0 25.0 0.00 0.00 0.00 78 1021.5
20181014150422 21 11 17.0 25.0 0.00 0.00 0.00 78 1021.4
20181014145933 21 346 20.0 24.0 0.00 0.00 0.00 78 1021.3
20181014145445 21 340 18.0 23.0 0.00 0.00 0.00 80 1021.2
20181014144937 21 349 18.0 22.0 0.00 0.00 0.00 86 1021.1
20181014144429 21 340 15.0 20.0 0.00 0.00 0.00 88 1021.0
20181014143926 21 346 10.0 17.0 0.00 0.00 0.00 90 1021.0
20181014143515 21 355 10.0 16.0 0.00 0.00 0.00 90 1021.0
20181014143005 21 355 10.0 15.0 0.00 0.00 0.00 90 1021.0
20181014142440 20 355 11.0 14.0 0.00 0.00 0.00 91 1021.0
20181014141932 20 338 7.0 12.0 0.00 0.00 0.00 91 1021.0
20181014141445 20 348 6.0 11.0 0.00 0.00 0.00 92 1021.0
20181014140937 20 349 7.0 12.0 0.00 0.00 0.00 91 1020.9
20181014140429 20 355 8.0 12.0 0.00 0.00 0.00 92 1020.8
20181014140020 20 355 7.0 12.0 0.00 0.00 0.00 92 1020.8
20181014135431 20 355 8.0 13.0 0.00 0.00 0.00 91 1020.7
20181014134923 20 5 8.0 13.0 0.00 0.00 0.00 91 1020.7
20181014134436 20 5 10.0 13.0 0.00 0.00 0.00 91 1020.7
20181014133932 20 17 10.0 14.0 0.00 0.00 0.00 91 1021.2
20181014133449 20 15 10.0 16.0 0.00 0.00 0.00 91 1021.2
20181014133000 20 15 13.0 16.0 0.00 0.00 0.00 91 1021.1
20181014132432 20 20 12.0 16.0 0.00 0.00 0.00 91 1021.1
20181014132004 20 17 12.0 15.0 0.00 0.00 0.00 91 1020.9
20181014131455 20 20 12.0 15.0 0.00 0.01 0.00 91 1021.0
20181014130926 20 26 11.0 14.0 0.00 0.01 0.00 92 1020.9
20181014130500 20 30 12.0 15.0 0.00 0.01 0.00 92 1020.9
20181014125929 20 27 12.0 15.0 0.00 0.01 0.00 92 1020.8
20181014125421 20 32 11.0 14.0 0.00 0.01 0.00 92 1020.7
20181014124934 20 30 11.0 16.0 0.00 0.01 0.00 91 1020.6
20181014124447 20 25 10.0 16.0 0.00 0.01 0.00 91 1020.6
20181014123939 20 28 11.0 15.0 0.00 0.01 0.00 91 1020.5
20181014123435 20 24 12.0 16.0 0.00 0.01 0.00 91 1020.5
20181014122928 20 21 12.0 17.0 0.00 0.01 0.00 91 1020.5
20181014122443 20 34 13.0 17.0 0.00 0.01 0.00 91 1020.3
20181014121954 20 39 14.0 17.0 0.00 0.01 0.00 91 1020.1
20181014121426 20 36 13.0 17.0 0.00 0.02 0.00 91 1020.2
20181014120918 20 30 14.0 18.0 0.00 0.02 0.00 91 1020.2
20181014120433 20 29 15.0 18.0 0.00 0.02 0.00 90 1020.1
20181014115924 20 26 14.0 17.0 0.00 0.02 0.00 91 1020.1
20181014115437 20 32 13.0 17.0 0.00 0.02 0.00 91 1020.0
20181014114934 20 45 15.0 17.0 0.00 0.02 0.00 91 1019.6
20181014114429 20 42 13.0 16.0 0.00 0.02 0.00 91 1019.6
20181014113923 20 38 13.0 14.0 0.00 0.02 0.00 92 1019.7
20181014113435 20 32 11.0 14.0 0.00 0.02 0.00 91 1019.8
20181014112928 20 46 11.0 16.0 0.00 0.02 0.00 92 1019.6
20181014112421 20 49 12.0 16.0 0.00 0.02 0.00 91 1019.6
20181014111933 20 46 13.0 19.0 0.00 0.02 0.00 91 1019.4
20181014111429 20 42 16.0 19.0 0.00 0.02 0.00 91 1019.4
20181014110928 20 42 16.0 19.0 0.00 0.02 0.00 91 1019.4
20181014110439 20 44 16.0 20.0 0.00 0.02 0.00 92 1019.3
20181014105931 20 51 17.0 20.0 0.00 0.02 0.00 91 1019.1
20181014105423 20 46 19.0 20.0 0.00 0.02 0.00 91 1019.1
20181014104936 21 37 17.0 20.0 0.00 0.02 0.00 91 1019.0
20181014104428 21 40 18.0 21.0 0.00 0.02 0.00 90 1018.9
20181014103921 21 44 16.0 21.0 0.00 0.02 0.00 89 1018.9
20181014103453 21 38 14.0 20.0 0.00 0.02 0.00 89 1018.9
20181014102932 21 29 17.0 20.0 0.00 0.02 0.00 88 1019.0
20181014102505 21 24 16.0 19.0 0.00 0.02 0.00 88 1018.9
20181014101958 21 38 16.0 21.0 0.00 0.02 0.00 89 1018.7
20181014101430 22 50 15.0 23.0 0.00 0.02 0.00 88 1018.6
20181014101006 22 40 20.0 23.0 0.00 0.02 0.00 88 1019.2
20181014100435 22 49 17.0 21.0 0.00 0.02 0.00 88 1019.2
20181014095927 22 42 15.0 20.0 0.00 0.02 0.00 87 1019.2
20181014095500 23 19 13.0 18.0 0.00 0.02 0.00 88 1019.0
20181014094932 23 360 12.0 18.0 0.00 0.02 0.00 86 1019.1
20181014094444 23 12 8.0 12.0 0.00 0.02 0.00 84 1019.0
20181014093936 23 342 8.0 12.0 0.00 0.02 0.00 83 1019.1
20181014093428 23 329 9.0 12.0 0.00 0.02 0.00 82 1019.1